Regional Weather Roundup
Issued by NWS Northern Indiana

Home | Current Version | Previous Version | Text Only | Print | Product List | Glossary On
Versions: 1 2 3 4 5 6 7 8 9 10 11 12 13 14 15 16 17 18 19 20 21 22 23 24 25 26 27 28 29 30 31 32 33 34 35 36 37 38 39 40 41 42 43 44 45 46 47 48 49 50
000
ASUS43 KIWX 190810
RWRIWX

KIWX WEATHER ROUNDUP
NATIONAL WEATHER SERVICE NORTHERN INDIANA
400 AM EDT FRI SEP 19 2014

NOTE: "FAIR" INDICATES FEW OR NO CLOUDS BELOW 12,000 FEET WITH NO
SIGNIFICANT WEATHER AND/OR OBSTRUCTIONS TO VISIBILITY.

* THESE STATIONS ARE NOT UNDER NWS QUALITY CONTROL. THEY ALSO MAY NOT
  REPORT WEATHER SUCH AS PRECIPITATION OR FOG.

INZ001>027-190900-
NORTHERN INDIANA

CITY           SKY/WX    TMP DP  RH WIND       PRES   REMARKS
GARY*          CLEAR     57  52  82 SE6       30.16F
VALPARAISO     CLEAR     49  47  93 E6        30.17S
MICHIGAN CITY* CLEAR     54  52  94 E3        30.18F
LAPORTE*       CLEAR     48  48 100 E3        30.18F
KNOX*          CLEAR     51  48  89 E5        30.17S
SOUTH BEND     NOT AVBL
GOSHEN         CLEAR     53  50  89 E7        30.19F FOG
MONTICELLO*    CLEAR     52  49  92 E3        30.16R
LOGANSPORT*    CLEAR     50  46  87 E6        30.17S
ROCHESTER*     CLEAR     54  52  94 E6        30.18S
WARSAW*        CLEAR     52  50  93 E7        30.19S FOG
ANGOLA*        CLEAR     50  48  93 SE8       30.21F
FORT WAYNE     CLEAR     50  48  93 E7        30.20F FOG
HUNTINGTON*    CLEAR     49  49  97 E3        30.18F
PERU/GRISSOM   CLEAR     52  52 100 E7        30.16F
MARION*        CLEAR     51  47  87 E6        30.18F

$$
INZ028>050-190900-
CENTRAL INDIANA

CITY           SKY/WX    TMP DP  RH WIND       PRES   REMARKS
LAFAYETTE        N/A     53  48  83 E3        30.14F
KOKOMO*        CLEAR     50  46  87 E8        30.17F
MUNCIE*        CLEAR     49  46  90 SE5       30.18S
INDIANAPOLIS   CLEAR     55  47  74 E7        30.14S

$$
MIZ043>046-050>051-056>058-064>065-071>073-077>080-190900-
SOUTHWEST LOWER MICHIGAN

CITY           SKY/WX    TMP DP  RH WIND       PRES   REMARKS
BATTLE CREEK   PTCLDY    50  47  89 E5        30.21F
BENTON HARBOR  CLEAR     51  49  92 E6        30.18S
COLDWATER*     CLEAR     50  49  96 SE6       30.20F FOG
HILLSDALE*     CLEAR     48  48 100 E5        30.21F FOG
HOLLAND        CLEAR     50  47  89 E6        30.20F
GRAND RAPIDS   CLEAR     46  45  96 E6        30.22S
KALAMAZOO      PTCLDY    47  45  93 CALM      30.21S FOG
STURGIS*       CLEAR     50  48  93 E5        30.19S FOG
THREE RIVERS*  FAIR      49  47  94 CALM      30.20F FOG

$$
OHZ001>008-015>018-024>025-190900-
NORTHWEST OHIO

CITY           SKY/WX    TMP DP  RH WIND       PRES   REMARKS
WAUSEON*       FAIR      46  46 100 NE6       30.21F
DEFIANCE       PTCLDY    50  48  93 CALM      30.21F FOG
FINDLAY        CLEAR     53  51  93 NE7       30.20S
TOLEDO EXPRESS CLEAR     49  47  93 CALM      30.21F
TOLEDO METCALF CLEAR     51  47  86 CALM      30.23F
LIMA           CLEAR     51  48  89 NE5       30.20S

$$
&&



USA.gov is the U.S. government's official web portal to all federal, state and local government web resources and services.